Probability
0 0 0 0 0 0 0 0 0 0 0 0 0 0 0 0 0 0 0 0 0 0 0 6 61 100 100 100 100 94 97 97 97 90 87 90 77 77 52 39 10 0 3 3
0 0 0 0 0 0 0 0 0 0 0 0 0 0 0 0 0 0 0 0 0 0 0 10 52 97 100 100 100 100 100 100 100 100 100 100 90 81 81 74 42 19 10 3
0 0 0 0 0 0 0 0 0 0 0 0 0 0 0 0 0 0 0 0 0 0 10 29 58 97 100 97 100 100 100 100 100 100 100 100 94 94 90 90 81 58 32 19
0 0 0 0 0 0 0 0 0 0 0 0 0 0 0 0 0 0 0 0 16 19 55 65 84 90 100 100 100 100 100 100 97 97 97 100 97 94 87 77 77 77 65 39
0 0 0 0 0 0 0 0 0 0 0 0 0 0 0 0 0 0 0 3 23 16 26 39 45 65 68 61 65 65 65 61 61 77 90 90 90 90 90 81 74 71 71 58
0 0 0 0 0 0 0 0 0 0 0 0 0 0 0 0 0 0 0 0 0 0 0 3 3 6 6 10 6 6 6 6 6 23 35 65 84 87 84 84 84 74 65 52
0 0 0 0 0 0 0 0 0 0 0 0 0 0 0 0 0 0 0 0 0 0 0 0 0 0 0 0 0 0 0 0 0 3 10 19 29 48 58 45 45 52 55 35
0 0 0 0 0 0 0 0 0 0 0 0 0 0 0 0 0 0 0 0 0 0 0 0 0 0 0 0 0 0 0 0 0 0 0 0 6 6 3 6 13 10 16 10
0 0 0 0 0 0 0 0 0 0 0 0 0 0 0 0 0 0 0 0 0 0 0 0 0 0 0 0 0 0 0 0 0 0 0 0 0 0 0 6 0 3 6 10
0 0 0 0 0 0 0 0 0 0 0 0 0 0 0 0 0 0 0 0 0 0 0 0 0 0 0 0 0 0 0 0 0 0 0 0 0 0 0 0 0 0 6 6
0 0 0 0 0 0 0 0 0 0 0 0 0 0 0 0 0 0 0 0 0 0 0 0 0 0 0 0 0 0 0 0 0 0 0 0 0 0 0 0 0 0 13 3
0 0 0 0 0 0 0 0 0 0 0 0 0 0 0 0 0 0 0 0 0 0 0 0 0 0 0 0 0 0 0 0 0 0 0 0 0 0 0 0 0 0 0 0
0 0 0 0 0 0 0 0 0 0 0 0 0 0 0 0 0 0 0 0 0 0 0 0 0 0 0 0 0 0 0 0 0 0 0 0 0 0 0 0 0 0 0 0
0 0 0 0 0 0 0 0 0 0 0 0 0 0 0 0 0 0 0 0 0 0 0 0 0 0 0 0 0 0 0 0 0 0 0 0 0 0 0 0 0 0 0 0
0 0 0 0 0 0 0 0 0 0 0 0 0 0 0 0 0 0 0 0 0 0 0 0 0 0 0 0 0 0 0 0 0 0 0 0 0 0 0 0 0 0 0 0
0 0 0 0 0 0 0 0 0 0 0 0 0 0 0 0 0 0 0 0 0 0 0 0 0 0 0 0 0 0 0 0 0 0 0 0 0 0 0 0 0 0 0 0
0 0 0 0 0 0 0 0 0 0 0 0 0 0 0 0 0 0 0 0 0 0 0 0 0 0 0 0 0 0 0 0 0 0 0 0 0 0 0 0 0 0 0 0
0 0 0 0 0 0 0 0 0 0 0 0 0 0 0 0 0 0 0 0 0 0 0 0 0 0 0 0 0 0 0 0 0 0 0 0 0 0 0 0 0 0 0 0
0 0 0 0 0 0 0 0 0 0 0 0 0 0 0 0 0 0 0 0 0 0 0 0 0 0 0 0 0 0 0 0 0 0 0 0 0 0 0 0 0 0 0 0
0 0 0 0 0 0 0 0 0 0 0 0 0 0 0 0 0 0 0 0 0 0 0 0 0 0 0 0 0 0 0 0 0 0 0 0 0 0 0 0 0 0 0 0
0 0 0 0 0 0 0 0 0 0 0 0 0 0 0 0 0 0 0 0 0 0 0 0 0 0 0 0 0 0 0 0 0 0 0 0 0 0 0 0 0 0 0 0
0 0 0 0 0 0 0 0 0 0 0 0 0 0 0 0 0 0 0 0 0 0 0 0 0 0 0 0 0 0 0 0 0 0 0 0 0 0 0 0 0 0 0 0
0 0 0 0 0 0 0 0 0 0 0 0 0 0 0 0 0 0 0 0 0 0 0 0 0 0 0 0 0 0 0 0 0 0 0 0 0 0 0 0 0 0 0 0
0 0 0 0 0 0 0 0 0 0 0 0 0 0 0 0 0 0 0 0 0 0 0 0 0 0 0 0 0 0 0 0 0 0 0 0 0 0 0 0 0 0 0 0
0 0 0 0 0 0 0 0 0 0 0 0 0 0 0 0 0 0 0 0 0 0 0 0 0 0 0 0 0 0 0 0 0 0 0 0 0 0 0 0 0 0 0 0
0 0 0 0 0 0 0 0 0 0 0 0 0 0 0 0 0 0 0 0 0 0 0 0 0 0 0 0 0 0 0 0 0 0 0 0 0 0 0 0 0 0 0 0
0 0 0 0 0 0 0 0 0 0 0 0 0 0 0 0 0 0 0 0 0 0 0 0 0 0 0 0 0 0 0 0 0 0 0 0 0 0 0 0 0 0 0 0
Height
5754 5754 5755 5757 5759 5760 5761 5763 5764 5766 5768 5769 5769 5769 5771 5772 5774 5776 5778 5779 5779 5779 5778 5778 5777 5776 5775 5774 5772 5770 5769 5767 5766 5765 5764 5763 5762 5761 5761 5760 5760 5761 5761 5762
5747 5748 5750 5752 5753 5754 5755 5756 5757 5760 5762 5761 5760 5760 5762 5763 5765 5767 5769 5771 5772 5772 5772 5772 5771 5771 5769 5768 5767 5765 5763 5762 5761 5759 5758 5757 5756 5755 5754 5753 5754 5754 5754 5755
5739 5742 5745 5747 5748 5749 5750 5751 5753 5754 5755 5754 5753 5753 5754 5755 5757 5759 5761 5763 5765 5766 5766 5766 5765 5765 5764 5763 5761 5760 5758 5756 5754 5752 5751 5750 5749 5748 5747 5746 5746 5747 5747 5748
5734 5739 5742 5745 5744 5745 5747 5748 5748 5749 5749 5748 5748 5748 5748 5749 5751 5753 5756 5758 5760 5761 5761 5761 5760 5759 5758 5757 5755 5753 5751 5749 5747 5745 5744 5742 5741 5740 5739 5739 5739 5739 5740 5740
5730 5734 5737 5739 5740 5742 5744 5745 5745 5746 5745 5745 5745 5745 5745 5746 5748 5750 5752 5754 5755 5756 5756 5756 5756 5755 5753 5751 5749 5747 5744 5742 5740 5738 5736 5735 5733 5732 5731 5731 5731 5731 5731 5732
5727 5730 5733 5735 5736 5738 5742 5742 5743 5743 5744 5744 5744 5745 5746 5746 5747 5749 5750 5752 5752 5753 5753 5752 5751 5749 5748 5746 5743 5741 5738 5735 5733 5731 5729 5726 5725 5724 5723 5722 5722 5722 5723 5724
5722 5725 5728 5730 5732 5736 5739 5741 5740 5741 5742 5743 5744 5745 5746 5746 5747 5749 5750 5750 5750 5750 5749 5748 5747 5745 5743 5741 5738 5735 5732 5729 5726 5724 5721 5719 5717 5716 5715 5714 5714 5714 5714 5715
5718 5720 5724 5723 5727 5731 5734 5735 5737 5739 5741 5743 5744 5745 5746 5747 5748 5748 5749 5749 5749 5747 5746 5744 5743 5741 5739 5736 5733 5730 5726 5723 5720 5717 5715 5713 5710 5709 5707 5706 5705 5705 5705 5706
5714 5717 5717 5718 5721 5726 5730 5733 5735 5738 5741 5743 5744 5746 5746 5747 5748 5748 5748 5747 5746 5744 5743 5741 5739 5737 5735 5732 5728 5724 5721 5718 5715 5712 5710 5708 5705 5703 5701 5699 5697 5696 5696 5696
5712 5714 5715 5717 5721 5725 5729 5732 5735 5738 5741 5743 5744 5745 5746 5747 5747 5747 5746 5745 5743 5742 5740 5738 5736 5734 5731 5728 5724 5720 5717 5714 5711 5709 5706 5704 5701 5698 5695 5691 5688 5686 5685 5686
5711 5713 5715 5717 5720 5724 5728 5731 5734 5738 5740 5742 5744 5745 5746 5746 5746 5745 5745 5743 5741 5740 5738 5736 5734 5731 5728 5724 5721 5717 5714 5711 5708 5705 5703 5700 5697 5693 5689 5685 5680 5677 5676 5676
5710 5712 5715 5717 5720 5723 5727 5731 5734 5737 5740 5742 5743 5744 5745 5744 5744 5743 5742 5741 5739 5738 5736 5733 5731 5728 5725 5722 5719 5715 5711 5708 5705 5703 5700 5697 5694 5690 5686 5682 5677 5673 5671 5672
5709 5711 5714 5716 5719 5723 5726 5730 5734 5737 5739 5741 5742 5743 5743 5743 5742 5741 5740 5738 5738 5736 5734 5731 5729 5726 5723 5720 5716 5713 5709 5706 5703 5701 5698 5696 5692 5689 5685 5681 5677 5674 5672 5672
5707 5709 5712 5716 5719 5722 5725 5729 5733 5736 5738 5740 5741 5742 5742 5742 5741 5739 5738 5736 5736 5734 5732 5730 5727 5724 5721 5718 5715 5711 5707 5704 5702 5699 5697 5695 5692 5689 5686 5682 5680 5677 5675 5674
5706 5707 5710 5714 5718 5721 5724 5728 5731 5734 5737 5739 5740 5741 5741 5740 5739 5738 5736 5735 5734 5733 5730 5728 5725 5723 5720 5717 5713 5709 5706 5703 5700 5698 5696 5694 5692 5689 5687 5684 5681 5679 5678 5677
5705 5706 5708 5712 5716 5720 5723 5726 5729 5732 5735 5737 5739 5740 5740 5739 5738 5737 5736 5734 5733 5731 5729 5727 5724 5722 5719 5715 5712 5708 5705 5702 5700 5698 5696 5694 5692 5690 5687 5685 5683 5681 5680 5678
5705 5705 5707 5710 5714 5718 5721 5723 5726 5729 5733 5735 5737 5738 5738 5738 5737 5736 5735 5734 5732 5730 5728 5726 5724 5721 5718 5714 5711 5708 5705 5703 5701 5699 5697 5695 5693 5691 5688 5686 5684 5683 5681 5680
5704 5704 5705 5708 5711 5715 5719 5721 5724 5727 5730 5733 5735 5736 5737 5737 5737 5736 5735 5734 5732 5730 5728 5726 5723 5721 5718 5715 5712 5709 5707 5705 5702 5700 5699 5697 5695 5693 5691 5688 5686 5685 5683 5682
5703 5703 5703 5705 5708 5712 5716 5719 5721 5724 5728 5731 5733 5734 5735 5736 5736 5736 5735 5733 5732 5730 5728 5726 5724 5721 5719 5716 5713 5711 5709 5707 5705 5703 5701 5699 5697 5696 5694 5692 5690 5688 5686 5684
5701 5700 5701 5702 5705 5709 5712 5715 5718 5721 5725 5728 5730 5732 5734 5735 5735 5736 5735 5734 5732 5730 5728 5726 5725 5723 5720 5718 5716 5714 5712 5710 5708 5706 5704 5703 5701 5699 5697 5695 5693 5691 5690 5688
5698 5698 5698 5700 5702 5705 5708 5711 5714 5718 5721 5725 5727 5730 5731 5733 5734 5735 5734 5734 5732 5731 5729 5727 5726 5724 5722 5721 5719 5717 5715 5713 5712 5710 5708 5706 5705 5703 5701 5699 5698 5696 5694 5692
5696 5695 5695 5697 5698 5701 5703 5707 5710 5713 5717 5721 5724 5727 5729 5731 5732 5733 5734 5733 5732 5731 5730 5728 5727 5726 5724 5723 5722 5720 5719 5717 5715 5714 5712 5711 5709 5707 5705 5703 5702 5700 5698 5696
5693 5692 5691 5693 5694 5696 5698 5702 5705 5709 5713 5717 5721 5724 5726 5728 5730 5732 5732 5733 5732 5731 5730 5729 5728 5727 5726 5725 5724 5723 5722 5721 5719 5718 5716 5714 5713 5711 5709 5707 5706 5704 5702 5700
5690 5688 5687 5688 5690 5692 5694 5697 5701 5705 5709 5713 5717 5720 5723 5726 5728 5729 5731 5731 5731 5731 5731 5730 5729 5728 5727 5727 5726 5725 5725 5723 5722 5721 5720 5718 5716 5715 5713 5711 5710 5708 5706 5705
5687 5684 5682 5683 5685 5686 5688 5691 5696 5700 5705 5709 5712 5716 5719 5722 5725 5727 5728 5729 5730 5730 5730 5730 5729 5729 5728 5728 5728 5727 5727 5726 5725 5724 5723 5722 5720 5718 5717 5715 5714 5712 5710 5708
5682 5679 5677 5676 5678 5681 5683 5686 5690 5695 5699 5704 5708 5711 5715 5718 5721 5723 5725 5727 5728 5729 5729 5729 5729 5729 5729 5729 5729 5729 5728 5728 5727 5726 5726 5724 5723 5721 5720 5718 5717 5715 5713 5711
5676 5674 5671 5670 5671 5674 5677 5680 5684 5688 5693 5698 5702 5706 5710 5713 5716 5719 5722 5724 5725 5727 5728 5728 5729 5728 5728 5729 5729 5729 5729 5729 5728 5728 5727 5726 5725 5724 5722 5720 5719 5717 5715 5713
Wind_Speed
26 24 23 22 24 26 27 28 31 31 31 30 31 34 34 34 34 32 29 28 26 26 25 22 21 21 23 25 23 21 21 21 21 22 22 23 23 23 23 23 22 22 22 21
25 24 20 18 20 21 23 24 27 27 27 27 28 30 31 32 32 31 29 27 27 25 24 22 22 23 24 23 21 21 21 23 23 23 23 23 22 22 23 23 23 24 24 23
21 20 17 16 16 18 20 19 19 19 20 22 24 25 26 26 28 28 27 26 25 24 23 23 23 23 22 21 21 21 22 23 23 23 23 23 22 22 23 23 24 24 25 25
15 16 15 14 14 15 15 15 15 17 19 20 20 19 19 20 21 22 22 22 21 21 21 20 20 20 21 21 22 22 22 23 23 23 24 24 24 24 24 24 24 25 25 26
11 14 13 13 14 14 13 13 14 14 15 15 12 10 10 11 13 14 15 16 16 16 16 17 18 19 21 22 22 22 23 23 24 25 26 26 26 26 26 25 25 25 25 26
10 12 13 16 15 14 13 13 13 12 9 7 5 5 5 6 7 8 9 10 11 12 13 16 18 19 20 20 21 22 24 25 25 25 25 25 25 25 25 26 26 25 25 26
14 14 14 17 17 15 16 16 15 13 10 7 5 4 4 4 4 5 6 8 9 11 14 15 16 17 18 19 20 22 23 23 23 22 22 21 22 22 23 24 26 26 27 27
15 16 16 17 20 20 19 19 18 14 10 7 5 4 3 3 4 5 7 9 11 12 13 13 13 14 15 18 20 21 21 20 19 19 18 18 18 19 20 22 25 27 29 30
17 17 14 16 21 21 21 22 20 15 10 6 5 4 4 3 4 6 8 10 12 12 11 10 11 12 15 18 19 19 18 17 16 15 15 15 15 16 18 21 23 26 28 30
17 19 15 13 19 21 21 22 18 12 8 6 5 5 3 3 5 7 9 11 11 11 9 9 10 13 16 18 18 17 16 14 13 13 13 14 15 16 17 19 21 23 26 27
14 17 16 13 18 21 21 19 15 10 8 7 6 4 3 4 6 9 11 11 11 10 9 9 11 13 15 16 16 15 13 12 12 12 13 14 14 15 16 17 16 16 18 20
12 17 17 14 18 21 21 19 14 11 9 7 5 3 3 4 6 8 11 11 11 10 9 10 11 13 14 14 14 13 12 12 11 11 12 13 14 14 15 14 13 9 8 10
9 16 17 15 17 21 20 18 14 11 9 7 4 2 3 5 6 8 10 11 11 11 10 10 11 12 12 13 12 12 12 12 11 10 11 12 12 13 13 13 12 8 3 1
7 12 16 17 16 20 20 18 15 12 9 7 4 3 4 5 6 8 9 10 11 11 11 11 11 11 12 12 13 13 13 12 11 9 9 10 11 12 12 12 11 9 6 4
7 10 15 18 17 18 19 18 17 15 12 8 5 4 4 5 6 8 9 10 11 12 12 11 11 11 12 13 14 13 13 12 10 9 9 9 10 11 11 11 10 8 6 4
7 8 15 18 18 17 18 18 18 18 15 11 7 6 5 4 6 7 9 10 11 12 12 11 11 11 12 13 14 13 12 11 10 9 9 9 10 10 10 10 10 9 7 6
7 7 13 18 19 18 17 18 19 19 17 13 10 7 5 4 5 7 8 9 11 12 11 11 11 12 13 13 13 13 12 11 10 10 9 10 10 10 10 10 9 9 8 7
8 8 12 18 21 19 18 17 19 20 19 15 12 9 6 4 4 6 7 8 10 11 11 11 11 12 13 13 13 13 12 11 11 11 11 11 12 12 12 11 11 11 10 9
9 8 12 17 21 20 18 18 19 21 21 18 14 11 7 4 4 5 6 7 8 9 10 10 11 12 12 13 13 12 12 12 12 12 12 13 13 14 14 14 14 13 13 12
10 9 11 15 19 21 20 20 21 22 22 19 16 13 9 6 4 4 4 5 7 7 8 9 10 11 12 12 12 12 12 12 13 13 13 13 14 14 14 14 14 14 14 14
12 10 12 14 18 20 21 22 23 23 23 21 18 15 11 8 5 4 3 3 4 5 6 7 8 9 10 10 11 11 12 12 13 13 14 14 14 14 15 15 15 15 15 15
15 12 14 16 17 19 21 23 24 24 25 23 20 17 13 10 8 6 3 2 2 3 4 5 6 6 7 8 9 10 11 11 12 13 13 14 14 15 15 16 16 16 17 18
19 14 15 18 18 19 21 23 25 26 26 24 21 18 16 13 11 9 6 3 1 1 2 3 4 4 5 6 7 8 9 11 12 13 13 13 14 15 16 16 17 17 18 18
22 18 16 19 20 20 21 23 27 28 27 24 22 19 17 16 14 12 9 5 3 1 1 1 1 2 4 6 6 8 9 10 11 12 13 13 14 14 15 15 16 16 17 17
24 21 17 19 22 22 22 24 29 31 30 26 23 21 20 19 17 15 12 9 5 3 2 2 1 2 4 5 6 7 8 9 10 11 11 12 13 14 15 15 15 15 15 15
24 24 20 19 23 24 24 27 31 34 32 29 25 23 22 22 20 18 15 12 9 6 4 4 3 3 4 4 5 5 6 7 8 9 9 10 12 13 14 14 14 14 14 14
24 25 23 20 23 27 27 28 33 36 36 33 29 26 25 24 23 22 19 16 12 9 7 6 5 5 5 5 5 5 4 4 5 5 6 7 8 10 11 12 12 13 13 13
Wind_Direction
255 259 260 259 257 260 261 258 257 258 265 270 269 268 267 268 269 270 274 272 272 273 273 274 277 284 291 296 293 288 283 281 281 282 282 281 278 274 271 268 265 263 261 256
253 257 260 260 257 258 260 259 260 263 268 270 269 268 268 266 267 268 269 267 268 272 269 273 278 283 289 290 287 284 281 281 282 282 282 281 279 275 270 266 262 259 257 255
249 247 254 256 252 255 260 264 265 266 269 272 273 272 268 264 261 261 260 261 265 268 270 275 279 283 285 285 286 286 285 284 284 283 283 282 280 276 272 267 261 259 257 255
244 232 242 246 245 247 255 263 267 272 275 278 279 277 270 262 257 254 255 257 261 266 272 275 278 281 284 287 290 290 288 288 287 285 283 282 279 275 271 267 263 260 257 255
233 224 236 240 234 237 246 260 265 267 274 284 288 283 269 256 248 247 250 254 259 265 270 276 281 285 288 292 294 294 293 291 290 287 285 283 279 275 272 268 264 261 257 255
220 220 235 235 229 231 235 241 239 235 243 256 264 243 245 233 235 242 247 250 255 264 274 281 285 289 291 295 296 297 296 295 293 291 288 284 280 275 270 267 263 261 259 256
227 226 235 232 223 222 220 220 213 211 211 211 211 221 219 221 227 240 250 258 267 277 283 286 288 291 294 298 300 301 300 299 297 295 292 288 283 277 272 268 264 261 259 257
235 230 222 215 210 210 210 208 207 211 215 215 211 215 218 225 237 254 267 275 281 284 287 290 292 296 301 306 308 308 306 303 301 299 298 295 290 284 279 273 268 263 260 258
240 232 220 201 194 199 202 206 209 216 225 222 215 214 217 236 261 276 285 291 293 293 295 296 299 305 311 316 317 317 314 310 307 306 306 305 302 296 291 284 276 269 263 259
246 237 236 212 193 194 200 205 212 219 223 222 216 215 225 263 288 295 301 306 305 303 301 302 306 312 318 322 324 323 320 316 314 314 314 315 313 310 306 298 287 276 265 257
255 240 239 220 197 195 200 209 217 217 219 222 214 220 254 292 303 308 313 315 314 311 310 313 316 319 323 327 328 328 327 325 323 322 323 324 324 325 324 319 309 289 267 255
258 240 240 227 203 199 204 213 217 215 218 216 211 223 272 296 309 319 324 324 323 322 323 324 323 324 327 329 331 335 338 337 333 331 332 335 337 339 340 340 335 319 281 253
264 243 241 234 212 204 209 216 215 212 214 208 209 237 285 300 315 330 336 337 333 330 329 329 328 329 331 334 338 343 345 344 343 342 342 345 350 354 356 357 1 6 9 257
285 244 241 236 222 212 214 215 213 215 216 214 223 256 289 307 324 339 347 348 342 337 335 336 335 335 337 342 346 348 348 347 346 347 348 349 355 0 3 6 10 19 33 53
315 246 238 233 225 220 219 220 220 219 220 222 235 260 283 308 334 348 354 355 350 344 342 343 342 341 343 348 352 354 354 353 352 350 350 352 357 2 6 11 16 21 26 38
317 249 231 231 230 227 226 227 225 222 221 224 235 254 276 311 340 351 355 357 354 349 348 349 348 348 349 355 0 2 3 4 3 2 0 0 3 8 13 16 20 25 28 31
314 260 228 226 230 233 234 233 225 218 220 224 235 251 269 306 336 345 353 357 355 354 354 353 352 354 359 5 11 13 14 15 16 17 19 20 22 24 26 27 28 29 31 33
304 261 231 225 228 233 236 234 224 219 220 225 235 246 259 287 321 333 346 354 355 357 358 357 357 2 10 17 22 23 25 28 31 35 38 41 42 42 43 43 43 44 46 48
303 264 236 226 227 232 235 233 226 221 221 227 234 243 248 263 296 318 338 350 355 0 3 3 6 12 21 27 30 31 36 41 46 50 53 55 55 55 55 55 55 55 56 56
305 274 247 232 228 231 234 232 228 224 224 226 231 236 236 241 266 295 325 346 356 4 9 11 15 22 30 36 39 43 49 55 58 61 63 64 63 62 62 61 60 60 59 57
312 277 252 240 233 233 234 233 230 227 223 224 228 231 228 224 234 255 291 334 352 5 15 17 21 28 37 43 47 52 60 66 69 70 70 70 69 68 67 65 63 61 60 59
320 283 256 245 241 236 234 234 232 226 221 221 224 226 222 216 217 224 235 289 342 4 17 20 24 33 43 48 53 60 68 73 74 73 71 70 69 67 66 65 63 62 62 61
325 297 262 248 244 239 234 232 227 220 218 219 222 221 217 213 212 212 214 227 271 342 10 19 25 41 55 59 64 72 76 77 75 72 69 67 66 66 65 64 63 63 63 63
327 311 274 250 244 240 235 228 220 216 215 216 217 217 216 214 211 208 208 213 223 244 295 359 33 65 75 77 81 84 84 81 77 72 69 67 67 67 66 65 65 64 64 63
325 318 292 255 243 239 233 223 216 214 214 215 216 216 216 215 211 207 207 210 213 222 230 227 181 119 106 101 98 95 92 88 81 75 70 67 66 66 65 63 62 61 60 58
319 317 304 266 242 236 231 222 216 214 215 216 216 216 215 214 211 207 207 209 212 218 225 222 205 167 140 128 123 118 111 100 89 79 70 65 61 59 57 55 54 53 51 48
308 310 306 281 247 234 230 224 217 215 215 217 217 216 215 213 211 209 209 210 213 218 225 226 216 196 175 161 155 149 139 120 100 82 68 58 52 49 47 47 48 47 44 41